Location: Newark
(30.0333°N, 31.2167°E)
Time: 18:20:57
(UTC+00:00)

Tiros 1 - Pass Details

Date: 02 February 2020
Orbit: 630 x 664 km, 48.4° (Epoch: 16 February)

Event Time Altitude Azimuth Distance (km) Brightness Sun altitude
Rises 12:49:29 0° 322° (NW) 2,953 10.5 29.2°
Reaches altitude 10° 12:52:16 10° 337° (NNW) 2,048 9.6 28.8°
Maximum altitude 12:55:59 22° 29° (NNE) 1,401 8.6 28.2°
Drops below altitude 10° 12:59:43 10° 81° (E) 2,060 9.4 27.6°
Sets 13:02:30 0° 96° (E) 2,975 10.2 27.2°
